FW4117 Weather Reports


Display with metric or nautical units.
time (UTC)temp
F
wind
direction
speed
MPH
gust
MPH
rain 1hr
in
rain 24hr
in
rain mn
in
humidity
%
barometer
mb
20210619065004 77 109 0.0 2.0 0.00 0.00 0.00 75 1011.8
20210619064503 77 109 1.0 2.0 0.00 0.00 0.00 75 1011.8
20210619064003 77 109 1.0 2.0 0.00 0.00 0.00 75 1011.9
20210619063503 77 111 1.0 2.0 0.00 0.00 0.00 74 1012.1
20210619063003 77 120 1.0 3.0 0.00 0.00 0.00 74 1012.0
20210619062503 77 125 1.0 3.0 0.00 0.00 0.00 75 1012.0
20210619062003 76 122 1.0 3.0 0.00 0.00 0.00 77 1012.2
20210619061503 76 117 0.0 1.0 0.00 0.00 0.00 78 1012.2
20210619061003 76 117 0.0 1.0 0.00 0.00 0.00 78 1012.3
20210619060503 76 0 0.0 0.0 0.00 0.00 0.00 78 1012.1
20210619060003 76 0 0.0 0.0 0.00 0.00 0.00 77 1012.1
20210619055503 76 0 0.0 0.0 0.00 0.00 0.00 76 1012.2
20210619055003 77 0 0.0 0.0 0.00 0.00 0.00 75 1012.3
20210619054503 77 0 0.0 0.0 0.00 0.00 0.00 74 1012.4
20210619054003 78 0 0.0 0.0 0.00 0.00 0.00 72 1012.4
20210619053504 78 0 0.0 0.0 0.00 0.00 0.00 72 1012.4
20210619053003 79 117 0.0 1.0 0.00 0.00 0.00 70 1012.4
20210619052503 79 117 0.0 1.0 0.00 0.00 0.00 69 1012.4
20210619052003 80 117 0.0 2.0 0.00 0.00 0.00 68 1012.4
20210619051503 80 117 1.0 3.0 0.00 0.00 0.00 67 1012.4
20210619051003 80 117 1.0 3.0 0.00 0.00 0.00 66 1012.3
20210619050503 80 117 1.0 3.0 0.00 0.00 0.00 66 1012.3
20210619050004 80 117 1.0 2.0 0.00 0.00 0.00 67 1012.2
20210619045503 80 117 0.0 2.0 0.00 0.00 0.00 67 1012.3
20210619045003 81 117 1.0 2.0 0.00 0.00 0.00 67 1012.3
20210619044503 81 111 1.0 3.0 0.00 0.00 0.00 66 1012.2
20210619044003 81 107 1.0 4.0 0.00 0.00 0.00 67 1012.3
20210619043503 81 101 1.0 4.0 0.00 0.00 0.00 67 1012.3
20210619043003 81 94 0.0 2.0 0.00 0.00 0.00 68 1012.2
20210619042503 81 89 0.0 2.0 0.00 0.00 0.00 69 1012.3
20210619042003 81 89 0.0 2.0 0.00 0.00 0.00 69 1012.3
20210619041503 81 89 0.0 1.0 0.00 0.00 0.00 68 1012.3
20210619041003 81 89 0.0 1.0 0.00 0.00 0.00 68 1012.1
20210619040503 82 89 0.0 1.0 0.00 0.00 0.00 67 1012.2
20210619040003 82 89 0.0 1.0 0.00 0.00 0.00 67 1012.2
20210619035503 82 89 0.0 2.0 0.00 0.00 0.00 66 1012.2
20210619035003 83 89 0.0 2.0 0.00 0.00 0.00 65 1012.2
20210619034503 83 89 0.0 2.0 0.00 0.00 0.00 64 1012.1
20210619034003 83 89 1.0 2.0 0.00 0.00 0.00 64 1012.1
20210619033503 83 88 1.0 2.0 0.00 0.00 0.00 64 1012.2
20210619033003 83 82 1.0 3.0 0.00 0.00 0.00 63 1012.0
20210619032503 84 79 1.0 3.0 0.00 0.00 0.00 63 1012.0
20210619032003 84 112 1.0 3.0 0.00 0.00 0.00 62 1011.9
20210619031503 84 131 1.0 4.0 0.00 0.00 0.00 62 1011.8
20210619031004 84 116 2.0 4.0 0.00 0.00 0.00 61 1011.8
20210619030503 84 116 2.0 4.0 0.00 0.00 0.00 61 1011.7
20210619030003 84 123 2.0 4.0 0.00 0.00 0.00 60 1011.6
20210619025503 85 118 2.0 8.0 0.00 0.00 0.00 60 1011.7
20210619025003 85 114 2.0 7.0 0.00 0.00 0.00 60 1011.5
20210619024503 85 104 2.0 4.0 0.00 0.00 0.00 60 1011.5
20210619024003 85 92 2.0 4.0 0.00 0.00 0.00 60 1011.4
20210619023503 85 87 2.0 7.0 0.00 0.00 0.00 60 1011.4
20210619023003 85 88 2.0 7.0 0.00 0.00 0.00 60 1011.3
20210619022503 86 95 2.0 6.0 0.00 0.00 0.00 59 1011.3
20210619022003 86 102 2.0 6.0 0.00 0.00 0.00 59 1011.2
20210619021503 86 102 2.0 4.0 0.00 0.00 0.00 59 1011.2
20210619021003 86 95 2.0 4.0 0.00 0.00 0.00 59 1011.2
20210619020503 86 90 2.0 4.0 0.00 0.00 0.00 59 1011.1
20210619020003 86 86 2.0 6.0 0.00 0.00 0.00 59 1011.0
20210619015503 86 81 2.0 4.0 0.00 0.00 0.00 58 1011.0
20210619015003 87 92 2.0 4.0 0.00 0.00 0.00 58 1011.1
20210619014503 87 100 2.0 4.0 0.00 0.00 0.00 58 1011.0
20210619014003 87 90 2.0 6.0 0.00 0.00 0.00 58 1011.0
20210619013503 88 94 2.0 4.0 0.00 0.00 0.00 57 1011.1
20210619013003 88 106 2.0 6.0 0.00 0.00 0.00 57 1011.0
20210619012503 88 102 3.0 8.0 0.00 0.00 0.00 56 1011.0
20210619012003 88 96 2.0 8.0 0.00 0.00 0.00 56 1010.8
20210619011503 88 92 2.0 5.0 0.00 0.00 0.00 56 1010.9
20210619011003 89 91 2.0 6.0 0.00 0.00 0.00 56 1010.9
20210619010503 89 84 2.0 6.0 0.00 0.00 0.00 56 1010.8
20210619010003 89 82 2.0 6.0 0.00 0.00 0.00 56 1010.7
20210619005503 90 82 2.0 6.0 0.00 0.00 0.00 55 1010.8
20210619005003 90 105 3.0 12.0 0.00 0.00 0.00 55 1010.7
20210619004503 90 119 3.0 12.0 0.00 0.00 0.00 55 1010.6
20210619004003 90 113 3.0 7.0 0.00 0.00 0.00 54 1010.7
20210619003503 90 94 2.0 6.0 0.00 0.00 0.00 54 1010.7
20210619003003 91 74 2.0 6.0 0.00 0.00 0.00 53 1010.4
20210619002503 91 99 3.0 6.0 0.00 0.00 0.00 54 1010.4
20210619002004 91 108 3.0 9.0 0.00 0.00 0.00 53 1010.4
20210619001504 91 98 3.0 9.0 0.00 0.00 0.00 53 1010.4
20210619001004 91 106 2.0 6.0 0.00 0.00 0.00 53 1010.3
20210619000503 92 114 2.0 4.0 0.00 0.00 0.00 52 1010.2
20210619000003 92 116 3.0 7.0 0.00 0.00 0.00 52 1010.2
20210618235503 92 119 4.0 10.0 0.00 0.00 0.00 52 1010.2
20210618235004 92 115 4.0 10.0 0.00 0.00 0.00 52 1010.3
20210618234504 92 103 3.0 8.0 0.00 0.00 0.00 52 1010.4
20210618234003 92 92 3.0 7.0 0.00 0.00 0.00 51 1010.6
20210618233503 92 84 3.0 7.0 0.00 0.00 0.00 51 1010.4
20210618233004 92 94 3.0 6.0 0.00 0.00 0.00 51 1010.5
20210618232503 92 105 3.0 8.0 0.00 0.00 0.00 52 1010.5
20210618232003 93 99 3.0 9.0 0.00 0.00 0.00 51 1010.6
20210618231503 93 92 3.0 9.0 0.00 0.00 0.00 51 1010.6
20210618231003 94 99 3.0 7.0 0.00 0.00 0.00 50 1010.5
20210618230503 93 100 3.0 7.0 0.00 0.00 0.00 50 1010.6
20210618230004 93 91 2.0 6.0 0.00 0.00 0.00 50 1010.6
20210618214503 94 78 4.0 10.0 0.00 0.00 0.00 51 1010.7
20210618214003 95 86 3.0 10.0 0.00 0.00 0.00 50 1010.9
20210618213503 95 89 3.0 8.0 0.00 0.00 0.00 51 1011.0
20210618213004 94 85 4.0 8.0 0.00 0.00 0.00 51 1011.0
20210618212504 95 82 3.0 10.0 0.00 0.00 0.00 50 1010.8
20210618212003 95 77 3.0 10.0 0.00 0.00 0.00 50 1011.0
20210618211503 95 84 3.0 9.0 0.00 0.00 0.00 51 1011.1
20210618211003 96 83 4.0 9.0 0.00 0.00 0.00 50 1011.0
20210618210503 95 76 4.0 8.0 0.00 0.00 0.00 52 1010.9
20210618210003 95 81 3.0 7.0 0.00 0.00 0.00 51 1011.1
20210618205503 95 95 3.0 7.0 0.00 0.00 0.00 52 1011.1
20210618205003 95 96 3.0 7.0 0.00 0.00 0.00 51 1011.1
20210618204503 94 77 3.0 8.0 0.00 0.00 0.00 51 1011.4
20210618204003 95 76 3.0 8.0 0.00 0.00 0.00 52 1011.4
20210618203503 95 87 3.0 6.0 0.00 0.00 0.00 51 1011.4
20210618203003 95 103 3.0 7.0 0.00 0.00 0.00 53 1011.5
20210618202503 94 106 3.0 7.0 0.00 0.00 0.00 52 1011.7
20210618202003 93 90 3.0 7.0 0.00 0.00 0.00 54 1011.6
20210618201504 94 98 3.0 8.0 0.00 0.00 0.00 51 1011.7
20210618201003 95 99 3.0 8.0 0.00 0.00 0.00 50 1011.7
20210618200503 94 83 3.0 6.0 0.00 0.00 0.00 53 1011.7
20210618200003 95 97 3.0 10.0 0.00 0.00 0.00 51 1011.8
20210618195503 94 100 3.0 10.0 0.00 0.00 0.00 52 1011.8
20210618195003 94 104 3.0 7.0 0.00 0.00 0.00 53 1011.9
20210618194503 94 100 3.0 7.0 0.00 0.00 0.00 53 1011.9
20210618194003 94 84 2.0 6.0 0.00 0.00 0.00 53 1011.9
20210618193503 94 108 2.0 6.0 0.00 0.00 0.00 56 1011.9
20210618193003 93 108 2.0 6.0 0.00 0.00 0.00 57 1012.1
20210618192503 92 77 2.0 5.0 0.00 0.00 0.00 54 1012.1
20210618192003 94 70 2.0 7.0 0.00 0.00 0.00 53 1012.2
20210618191503 94 72 2.0 6.0 0.00 0.00 0.00 55 1012.2
20210618191003 94 79 3.0 7.0 0.00 0.00 0.00 53 1012.3
20210618190503 93 104 3.0 8.0 0.00 0.00 0.00 54 1012.4
20210618190003 94 110 3.0 9.0 0.00 0.00 0.00 54 1012.4
20210618185503 94 94 3.0 7.0 0.00 0.00 0.00 56 1012.5
20210618185003 94 97 3.0 7.0 0.00 0.00 0.00 53 1012.5
20210618184503 93 101 2.0 7.0 0.00 0.00 0.00 54 1012.5
20210618184003 94 80 2.0 8.0 0.00 0.00 0.00 54 1012.7
20210618183503 93 75 2.0 8.0 0.00 0.00 0.00 55 1012.7
20210618183003 92 92 2.0 6.0 0.00 0.00 0.00 58 1012.8
20210618182503 92 114 2.0 6.0 0.00 0.00 0.00 56 1012.8
20210618182003 92 112 2.0 5.0 0.00 0.00 0.00 54 1012.9
20210618181504 93 97 3.0 7.0 0.00 0.00 0.00 54 1013.0
20210618181003 93 83 3.0 7.0 0.00 0.00 0.00 55 1012.9
20210618180504 93 69 3.0 6.0 0.00 0.00 0.00 56 1013.0
20210618180003 93 64 3.0 10.0 0.00 0.00 0.00 55 1013.1
20210618175504 94 83 3.0 10.0 0.00 0.00 0.00 54 1013.2
20210618175003 94 96 2.0 7.0 0.00 0.00 0.00 56 1013.2
20210618174503 92 85 2.0 4.0 0.00 0.00 0.00 56 1013.2
20210618174004 92 92 2.0 5.0 0.00 0.00 0.00 56 1013.3
20210618173504 92 119 2.0 6.0 0.00 0.00 0.00 58 1013.3
20210618173003 92 124 2.0 6.0 0.00 0.00 0.00 56 1013.4
20210618172504 92 114 2.0 7.0 0.00 0.00 0.00 56 1013.4
20210618172004 92 101 2.0 7.0 0.00 0.00 0.00 58 1013.4
20210618171504 91 107 3.0 9.0 0.00 0.00 0.00 60 1013.4
20210618171003 92 109 3.0 9.0 0.00 0.00 0.00 58 1013.4
20210618170503 92 105 2.0 4.0 0.00 0.00 0.00 60 1013.5
20210618170004 92 117 2.0 6.0 0.00 0.00 0.00 60 1013.5
20210618165504 91 122 3.0 7.0 0.00 0.00 0.00 59 1013.4
20210618165004 92 138 2.0 7.0 0.00 0.00 0.00 59 1013.5
20210618164504 92 127 2.0 5.0 0.00 0.00 0.00 59 1013.5
20210618164004 91 115 2.0 5.0 0.00 0.00 0.00 60 1013.6
20210618163503 91 122 2.0 6.0 0.00 0.00 0.00 60 1013.5
20210618163003 91 127 1.0 6.0 0.00 0.00 0.00 60 1013.6
20210618162504 90 122 2.0 4.0 0.00 0.00 0.00 61 1013.6
20210618162004 90 126 2.0 4.0 0.00 0.00 0.00 62 1013.7
20210618161504 90 134 2.0 6.0 0.00 0.00 0.00 61 1013.8
20210618161003 89 142 2.0 7.0 0.00 0.00 0.00 61 1013.7
20210618160503 90 140 2.0 7.0 0.00 0.00 0.00 62 1013.7
20210618160003 89 121 3.0 7.0 0.00 0.00 0.00 61 1013.6
20210618155504 89 127 3.0 7.0 0.00 0.00 0.00 62 1013.7
20210618155003 89 128 3.0 7.0 0.00 0.00 0.00 63 1013.7
20210618154503 88 123 3.0 8.0 0.00 0.00 0.00 64 1013.7
20210618154003 88 122 3.0 8.0 0.00 0.00 0.00 64 1013.7
20210618153503 88 127 3.0 10.0 0.00 0.00 0.00 64 1013.7
20210618153003 88 128 3.0 10.0 0.00 0.00 0.00 65 1013.8
20210618152503 88 124 3.0 7.0 0.00 0.00 0.00 65 1013.8
20210618152003 88 126 3.0 7.0 0.00 0.00 0.00 65 1013.9
20210618151504 87 115 3.0 8.0 0.00 0.00 0.00 66 1014.0
20210618151004 87 111 3.0 8.0 0.00 0.00 0.00 67 1014.0
20210618150503 87 116 3.0 8.0 0.00 0.00 0.00 66 1014.0
20210618150003 87 113 3.0 8.0 0.00 0.00 0.00 67 1014.1
20210618145504 86 110 3.0 9.0 0.00 0.00 0.00 67 1014.1
20210618145003 86 114 2.0 9.0 0.00 0.00 0.00 68 1014.2
20210618144503 86 116 3.0 8.0 0.00 0.00 0.00 69 1014.1
20210618144003 86 114 3.0 8.0 0.00 0.00 0.00 70 1014.1
20210618143504 86 113 3.0 7.0 0.00 0.00 0.00 68 1014.1
20210618143004 86 118 2.0 7.0 0.00 0.00 0.00 70 1014.1
20210618142503 86 141 3.0 8.0 0.00 0.00 0.00 70 1014.2
20210618142004 85 157 3.0 8.0 0.00 0.00 0.00 69 1014.1
20210618141503 85 163 3.0 7.0 0.00 0.00 0.00 69 1014.2
20210618141003 85 160 3.0 7.0 0.00 0.00 0.00 69 1014.1
20210618140504 85 148 3.0 6.0 0.00 0.00 0.00 70 1014.1
20210618140003 85 138 3.0 9.0 0.00 0.00 0.00 72 1014.1
20210618135504 84 148 2.0 6.0 0.00 0.00 0.00 71 1014.1
20210618135003 84 163 2.0 7.0 0.00 0.00 0.00 73 1014.1
20210618134503 84 153 3.0 8.0 0.00 0.00 0.00 73 1014.1
20210618134004 84 130 3.0 8.0 0.00 0.00 0.00 74 1014.0
20210618133504 83 129 2.0 6.0 0.00 0.00 0.00 75 1014.0
20210618133003 83 129 2.0 6.0 0.00 0.00 0.00 76 1013.9
20210618132503 82 128 2.0 6.0 0.00 0.00 0.00 76 1013.9
20210618132003 82 128 2.0 7.0 0.00 0.00 0.00 77 1014.0
20210618131503 82 133 2.0 7.0 0.00 0.00 0.00 78 1013.9
20210618131003 81 126 3.0 7.0 0.00 0.00 0.00 78 1014.0
20210618130504 81 124 3.0 7.0 0.00 0.00 0.00 78 1013.9
20210618130004 81 136 2.0 7.0 0.00 0.00 0.00 79 1013.9
20210618125503 80 126 3.0 8.0 0.00 0.00 0.00 79 1013.9
20210618125004 80 118 3.0 8.0 0.00 0.00 0.00 80 1013.9
20210618124503 80 122 3.0 8.0 0.00 0.00 0.00 81 1013.9
20210618124003 80 128 2.0 7.0 0.00 0.00 0.00 82 1014.0
20210618123504 79 137 2.0 6.0 0.00 0.00 0.00 83 1014.0
20210618123004 79 142 2.0 7.0 0.00 0.00 0.00 83 1014.0
20210618122503 79 131 2.0 7.0 0.00 0.00 0.00 84 1014.0
20210618122003 79 126 2.0 6.0 0.00 0.00 0.00 84 1014.0
20210618121504 79 127 2.0 4.0 0.00 0.00 0.00 84 1014.1
20210618121003 78 121 2.0 4.0 0.00 0.00 0.00 84 1014.0
20210618120503 78 114 2.0 5.0 0.00 0.00 0.00 84 1014.0
20210618120004 78 116 2.0 4.0 0.00 0.00 0.00 85 1014.1
20210618115503 78 125 2.0 4.0 0.00 0.00 0.00 84 1014.0
20210618115003 78 138 1.0 3.0 0.00 0.00 0.00 85 1014.1
20210618114503 78 132 1.0 5.0 0.00 0.00 0.00 85 1014.0
20210618114003 78 129 1.0 5.0 0.00 0.00 0.00 85 1014.0
20210618113503 78 132 1.0 3.0 0.00 0.00 0.00 86 1014.0
20210618113003 78 130 1.0 3.0 0.00 0.00 0.00 86 1014.0
20210618112503 78 132 0.0 2.0 0.00 0.00 0.00 86 1014.0
20210618112004 78 132 0.0 2.0 0.00 0.00 0.00 86 1013.9
20210618111503 78 132 0.0 2.0 0.00 0.00 0.00 86 1013.8
20210618111003 78 132 0.0 2.0 0.00 0.00 0.00 86 1013.7
20210618110504 78 131 1.0 2.0 0.00 0.00 0.00 85 1013.7
20210618110003 78 124 1.0 3.0 0.00 0.00 0.00 85 1013.6
20210618105503 78 117 1.0 3.0 0.00 0.00 0.00 85 1013.6
20210618105004 78 118 1.0 3.0 0.00 0.00 0.00 86 1013.5
20210618104504 77 123 1.0 3.0 0.00 0.00 0.00 86 1013.6
20210618104003 77 126 0.0 3.0 0.00 0.00 0.00 86 1013.6
20210618103503 77 126 0.0 1.0 0.00 0.00 0.00 85 1013.5
20210618103003 77 126 0.0 1.0 0.00 0.00 0.00 85 1013.6
20210618102503 78 126 0.0 1.0 0.00 0.00 0.00 85 1013.5
20210618102003 77 126 0.0 2.0 0.00 0.00 0.00 86 1013.5
20210618101503 77 126 0.0 2.0 0.00 0.00 0.00 86 1013.5
20210618101003 77 126 0.0 2.0 0.00 0.00 0.00 86 1013.6
20210618100504 78 128 0.0 2.0 0.00 0.00 0.00 86 1013.5
20210618100003 77 128 0.0 2.0 0.00 0.00 0.00 86 1013.5
20210618095503 77 144 0.0 3.0 0.00 0.00 0.00 86 1013.5
20210618095003 78 167 0.0 3.0 0.00 0.00 0.00 86 1013.5
20210618094504 78 183 0.0 2.0 0.00 0.00 0.00 85 1013.5
20210618094003 79 173 0.0 3.0 0.00 0.00 0.00 83 1013.4
20210618093503 79 173 0.0 3.0 0.00 0.00 0.00 82 1013.4
20210618093004 79 173 0.0 2.0 0.00 0.00 0.00 82 1013.3
20210618092504 79 173 0.0 2.0 0.00 0.00 0.00 82 1013.5
20210618092003 79 166 1.0 2.0 0.00 0.00 0.00 82 1013.4
20210618091504 79 158 1.0 2.0 0.00 0.00 0.00 83 1013.4
20210618091003 79 152 1.0 3.0 0.00 0.00 0.00 82 1013.4
20210618090503 79 129 1.0 4.0 0.00 0.00 0.00 81 1013.2
20210618090004 80 105 1.0 4.0 0.00 0.00 0.00 80 1013.2
20210618085504 80 107 1.0 3.0 0.00 0.00 0.00 80 1013.2
20210618085003 80 128 1.0 3.0 0.00 0.00 0.00 80 1013.2
20210618084504 80 150 1.0 4.0 0.00 0.00 0.00 79 1013.3
20210618084004 80 133 2.0 4.0 0.00 0.00 0.00 80 1013.3
20210618083503 80 118 2.0 7.0 0.00 0.00 0.00 80 1013.2
20210618083003 80 118 2.0 5.0 0.00 0.00 0.00 80 1013.4
20210618082503 80 119 2.0 4.0 0.00 0.00 0.00 79 1013.4
20210618082004 81 118 2.0 4.0 0.00 0.00 0.00 78 1013.4
20210618081503 80 126 2.0 7.0 0.00 0.00 0.00 78 1013.3
20210618081003 80 127 2.0 7.0 0.00 0.00 0.00 78 1013.4
20210618080503 80 124 2.0 6.0 0.00 0.00 0.00 78 1013.4
20210618080004 81 124 2.0 4.0 0.00 0.00 0.00 77 1013.5
20210618075503 81 121 2.0 4.0 0.00 0.00 0.00 76 1013.4
20210618075003 81 118 2.0 4.0 0.00 0.00 0.00 76 1013.4
20210618074504 81 121 2.0 6.0 0.00 0.00 0.00 76 1013.4
20210618074003 81 130 2.0 6.0 0.00 0.00 0.00 76 1013.4
20210618073503 81 132 2.0 6.0 0.00 0.00 0.00 76 1013.6
20210618073004 81 126 2.0 6.0 0.00 0.00 0.00 76 1013.5
20210618072504 81 122 2.0 6.0 0.00 0.00 0.00 76 1013.5
20210618072004 81 121 2.0 7.0 0.00 0.00 0.00 76 1013.4
20210618071504 81 110 2.0 7.0 0.00 0.00 0.00 77 1013.5
20210618071004 81 104 2.0 4.0 0.00 0.00 0.00 76 1013.5
20210618070504 82 116 2.0 4.0 0.00 0.00 0.00 74 1013.5
20210618070003 82 122 3.0 7.0 0.00 0.00 0.00 72 1013.4
20210618065503 82 123 2.0 7.0 0.00 0.00 0.00 72 1013.4